FLOCK 4E'-4 (46821 NORAD) Tracking and Keplerian Element Data

This shows tracking and keplerian element data for the satellite.

Feedback or suggestion? Click here.




ElementValue
Catalog46821
NameFLOCK 4E'-4
Epoch Orbit419
Epoch Day330.83181541
Epoch Year2020
RAAN31.0071
Inclination97.4972
Eccentricity0.0014749
Argument of Perigee191.4092
Mean Anonmoly280.9571
Mean Motion15.17511005
Decay Rate1.7E-05
L11 46821U 20077J 20330.83181541 .00001700 00000-0 87989-4 0 9999
L22 46821 97.4972 31.0071 0014749 191.4092 280.9571 15.17511005 4196

Live tracking and technical data element details for FLOCK 4E'-4 (NORAD 46821). FLOCK 4E'-4 can be tracked NOW for your location showing map with azimuth and elevation plus other details from your city location.

Track the satellite on the map from your city or location and see movement details for azimuth, elevation, latitude, longitude, range, height, and movement on the map or in text.







IsCatalogInMostPopularTable: catalog: 46821, numindb: 11
Update: records affected: 1



GetName: 46821 FLOCK 4E'-4

Hit Count: updated at: Thu, 26 Nov 2020 17:46:51 GMT